Flag for U.S.A. Weather past 2 weeks in Brockton, Massachusetts, U.S.A.

Now
81 °F

Warm.


Feels Like: 83 °F
Forecast: 64 / 82 °F
Wind: 17 mph from Southwest

Location: East Milton

Current Time: May 27, 2015 at 1:14:01 PM

Latest Report: May 27, 2015 at 12:54 PM


Visibility: N/A

Pressure: 30.17 "Hg

Humidity: 58%

Dew point: 65 °F

Location of BrocktonLocation

Historic Weather in Brockton — Graph

°F

Brockton temperature yesterday

Maximum temperature yesterday: 83 °F (at 3:54 PM)
Minimum temperature yesterday: 60 °F (at 5:54 AM)
Average temperature yesterday: 71 °F

Past Weeks' High & Low Weather Summary

 TemperatureHumidityPressure
High83 °F (May 26, 3:54 PM)100% (May 17, 3:54 AM)30.37 "Hg (May 17, 3:54 AM)
Low40 °F (May 23, 5:54 AM)19% (May 14, 3:54 PM)29.67 "Hg (May 12, 4:54 PM)
Average60 °F59%30.10 "Hg
* Reported May 12 11:54 AM — May 27 11:54 AM, Brockton, Weather by CustomWeather, © 2015

Note: Actual official high and low records may vary slightly from our data, if they occured in-between our weather recording intervals... More about our weather records

Advertising

Brockton weather history for previous 24 hours

 ConditionsComfort  
Time TempWeatherWind HumidityBarometerVisibility
11:54 AM
Wed, May 27
79 °FWarm.15 mph60%30.18 "HgN/A
10:54 AM76 °FMild.16 mph67%30.18 "HgN/A
9:54 AM73 °FMild.16 mph71%30.19 "HgN/A
8:54 AM69 °FMild.13 mph76%30.19 "HgN/A
7:54 AM67 °FMild.14 mph79%30.19 "HgN/A
6:54 AM62 °FCool.15 mph90%30.19 "HgN/A
5:54 AM62 °FCool.16 mph90%30.19 "HgN/A
4:54 AM62 °FCool.16 mph90%30.17 "HgN/A
3:54 AM62 °FCool.15 mph90%30.17 "HgN/A
2:54 AM63 °FMild.17 mph87%30.17 "HgN/A
1:54 AM64 °FMild.16 mph81%30.18 "HgN/A
12:54 AM66 °FMild.16 mph75%30.19 "HgN/A
11:54 PM
Tue, May 26
67 °FMild.15 mph76%30.19 "HgN/A
10:54 PM68 °FMild.16 mph76%30.18 "HgN/A
9:54 PM70 °FMild.17 mph71%30.17 "HgN/A
8:54 PM72 °FMild.16 mph64%30.15 "HgN/A
7:54 PM75 °FMild.18 mph58%30.15 "HgN/A
6:54 PM78 °FWarm.16 mph52%30.14 "HgN/A
5:54 PM81 °FWarm.21 mph49%30.14 "HgN/A
4:54 PM82 °FWarm.20 mph51%30.14 "HgN/A
3:54 PM83 °FWarm.20 mph51%30.14 "HgN/A
2:54 PM82 °FWarm.14 mph51%30.15 "HgN/A
1:54 PM81 °FWarm.18 mph53%30.16 "HgN/A
Weather by CustomWeather, © 2015

See weather overviewHow to use our weather pages